User: anonymous   Login
Location: ??????
(55.6130°N, 37.7882°E)
Time: 21:32:15
(UTC+00:00)
Language:

Envisat - Orbit

View from above orbital plane
View from above orbital plane
View from above satellite
View from above satellite

Ground track
Ground track

The orbit data is extracted from the following two-line orbital elements,

1 27386U 02009A   24165.63770853  .00000210  00000-0  82338-4 0  9995
2 27386  98.2819 126.8494 0001340  91.9115  81.1172 14.38588948167993
Epoch (UTC): 13 June 2024 15:18:18
Eccentricity: 0.0001340
inclination: 98.2819°
perigee height: 762 km
apogee height: 764 km
right ascension of ascending node: 126.8494°
argument of perigee: 91.9115°
revolutions per day: 14.38588948
mean anomaly at epoch: 81.1172°
orbit number at epoch: 16799

The dashed part of the orbit path shows where the satellite is in the earth's shadow,  

DLR